User: anonymous   Login
Location: Caltech
(34.1382°N, 118.1253°W)
Time: 08:13:39
(UTC-07:00)
Language:

Hubble Space Telescope - Orbit

View from above orbital plane
View from above orbital plane
View from above satellite
View from above satellite

Ground track
Ground track

The orbit data is extracted from the following two-line orbital elements,

1 20580U 90037B   17086.52049395 +.00000805 +00000-0 +38849-4 0  9992
2 20580 028.4692 187.1367 0002840 019.5762 060.0685 15.08712663277858
Epoch (UTC): 27 March 2017 12:29:30
Eccentricity: 0.0002840
inclination: 28.4692°
perigee height: 538 km
apogee height: 542 km
right ascension of ascending node: 187.1367°
argument of perigee: 19.5762°
revolutions per day: 15.08712663
mean anomaly at epoch: 60.0685°
orbit number at epoch: 27785

The dashed part of the orbit path shows where the satellite is in the earth's shadow,  

DLR